This is the latest recevied weather packets stored in our database for station/object KK4KTV-13. If no packets are shown the sender has not sent any weather packets the latest 10 day(s).
| Time | Temp. | Humidity | Pressure | Rain* | Wind** | Luminosity | Snow |
|---|---|---|---|---|---|---|---|
| 1778063079 | 15.56° C | 99% | 1007.5 hPa | 6.1 mm | - | 0 W/m² | - |
| 1778062776 | 15.56° C | 99% | 1007.3 hPa | 1.78 mm | - | 0 W/m² | - |
| 1778062472 | 15.56° C | 99% | 1007.3 hPa | 0 mm | - | 0 W/m² | - |
| 1778062170 | 15.56° C | 99% | 1007.4 hPa | 1.27 mm | - | 0 W/m² | - |
| 1778061868 | 15.56° C | 99% | 1007 hPa | 0 mm | - | 0 W/m² | - |
| 1778061565 | 16.11° C | 99% | 1006.9 hPa | 0 mm | - | 0 W/m² | - |
| 1778061264 | 16.11° C | 99% | 1007 hPa | 0 mm | - | 0 W/m² | - |
| 1778060959 | 16.11° C | 99% | 1007.1 hPa | 4.83 mm | - | 0 W/m² | - |
| 1778060658 | 16.11° C | 99% | 1007.1 hPa | 4.32 mm | - | 0 W/m² | - |
| 1778060356 | 16.11° C | 99% | 1007.2 hPa | 0 mm | - | 0 W/m² | - |
| 1778060053 | 16.11° C | 99% | 1007 hPa | 1.78 mm | - | 0 W/m² | - |
| 1778059751 | 16.11° C | 99% | 1007 hPa | 0 mm | - | 0 W/m² | - |
| 1778059449 | 16.11° C | 99% | 1006.7 hPa | 1.27 mm | - | 0 W/m² | - |
| 1778059144 | 16.11° C | 99% | 1006.5 hPa | 3.05 mm | - | 0 W/m² | - |
| 1778058843 | 16.11° C | 99% | 1007 hPa | 1.78 mm | - | 0 W/m² | - |
| 1778058540 | 16.11° C | 99% | 1007 hPa | 3.05 mm | - | 0 W/m² | - |
| 1778058238 | 16.11° C | 99% | 1007.3 hPa | 10.67 mm | - | 0 W/m² | - |
| 1778057934 | 16.11° C | 99% | 1007.1 hPa | 10.67 mm | - | 0 W/m² | - |
| 1778057630 | 16.11° C | 99% | 1006.8 hPa | 1.78 mm | - | 0 W/m² | - |
| 1778057327 | 16.11° C | 99% | 1006.5 hPa | 0 mm | - | 0 W/m² | - |
| 1778057024 | 16.11° C | 99% | 1006.1 hPa | 0 mm | - | 0 W/m² | - |
| 1778056720 | 16.11° C | 99% | 1006.1 hPa | 0 mm | - | 0 W/m² | - |
| 1778056418 | 16.11° C | 99% | 1006 hPa | 0 mm | - | 0 W/m² | - |
| 1778056115 | 16.11° C | 99% | 1005.8 hPa | 0 mm | - | 0 W/m² | - |
| 1778055811 | 16.11° C | 99% | 1005.8 hPa | 0 mm | - | 0 W/m² | - |
* Rain latest hour (hover to see other rain measurements)
** Current wind speed in m/s (hover to see current wind gust speed)